Location: Brno
(49.2000°N, 16.6330°E)
Time: 18:05:51
(UTC+02:00)

Transit 4A - Pass Details

Date: 28 July 2021
Orbit: 871 x 974 km, 66.8° (Epoch: 16 September)

Event Time Altitude Azimuth Distance (km) Brightness Sun altitude
Rises 03:27:03 0° 247° (WSW) 3,484 - -14.4°
Reaches altitude 10° 03:29:47 10° 257° (WSW) 2,537 - -14.2°
Exits shadow 03:29:58 11° 258° (WSW) 2,478 9.7 -14.1°
Maximum altitude 03:35:04 34° 321° (NW) 1,416 9.0 -13.6°
Drops below altitude 10° 03:40:19 10° 26° (NNE) 2,528 11.5 -13.1°
Sets 03:43:04 0° 36° (NE) 3,471 13.0 -12.8°
